Regional Weather Roundup
Issued by NWS

Home | Current Version | Previous Version | Text Only | Print | Product List | Glossary Off
Versions: 1 2 3 4 5 6 7 8 9 10 11 12 13 14 15 16 17 18 19 20 21 22 23 24 25 26 27 28 29 30 31 32 33 34 35 36 37 38 39 40 41 42 43 44 45 46 47 48 49 50

000
ASUS43 KBIS 101302
RWRND

NORTH DAKOTA REGIONAL WEATHER ROUNDUP
NATIONAL WEATHER SERVICE BISMARCK ND
700 AM CST WED FEB 10 2016

NOTE: "FAIR" INDICATES FEW OR NO CLOUDS BELOW 12,000 FEET WITH NO
SIGNIFICANT WEATHER AND/OR OBSTRUCTIONS TO VISIBILITY.


NDZ001>003-009>011-017-101400-
NORTHWEST NORTH DAKOTA

CITY           SKY/WX    TMP DP  RH WIND       PRES   REMARKS
WILLISTON      CLOUDY    24  22  91 S3        29.84R
MINOT          CLOUDY    18  10  71 E12       29.88R WCI   5
MINOT AFB      CLOUDY    15  12  91 SE16      29.89R WCI  -1
$$

NDZ018>021-031>035-040>046-101400-
SOUTHWEST NORTH DAKOTA

CITY           SKY/WX    TMP DP  RH WIND       PRES   REMARKS
BISMARCK       CLOUDY    23  17  78 SE10      29.86F WCI  12
DICKINSON      CLOUDY    30  25  81 W12       29.78F
GARRISON         N/A     20  18  92 E8        29.84R WCI  10
HETTINGER ARPT CLOUDY    28  23  81 W8        29.82F WCI  20
$$

NDZ004>008-012>016-024-026-027-054-101400-
NORTHEAST NORTH DAKOTA

CITY           SKY/WX    TMP DP  RH WIND       PRES   REMARKS
GRAND FORKS    LGT SNOW   5  -2  72 SE9       30.12F WCI  -9
GRND FRKS AFB  LGT SNOW   3  -2  78 E8        30.10F WCI -10
DEVILS LAKE    LGT SNOW   4   0  83 SE13      30.01S FOG     WCI -13
$$

NDZ022-023-025-028>030-036>039-047>053-101400-
SOUTHEAST NORTH DAKOTA

CITY           SKY/WX    TMP DP  RH WIND       PRES   REMARKS
FARGO          LGT SNOW   7   1  76 E7        30.10S WCI  -5
JAMESTOWN      CLOUDY     6   2  83 E15       29.97F WCI -12
$$




USA.gov is the U.S. government's official web portal to all federal, state and local government web resources and services.